Theta_e
317 318 317 315 310 315 308 310 306 310 314 323 325 326 328 329 331 332 336 337 340 344 347 350 352 354 356 358 358 357 356 359
317 319 319 317 318 308 310 302 302 305 310 315 322 323 327 327 330 334 337 339 341 344 347 349 350 353 355 356 355 352 350 351
317 314 313 313 312 313 313 311 304 304 308 319 322 325 325 328 333 335 337 339 342 345 348 349 350 349 350 350 351 351 350 350
312 319 322 318 315 316 310 308 311 311 310 324 325 326 328 330 336 339 340 341 344 346 348 349 350 351 353 353 351 352 351 352
311 315 318 314 317 316 316 314 311 305 311 326 326 327 329 332 339 342 343 344 346 349 350 351 352 355 354 354 353 352 353 351
306 311 316 313 314 315 313 309 309 309 312 321 324 327 328 335 340 342 343 345 348 349 351 354 355 357 357 358 358 357 355 353
314 313 315 313 311 311 311 312 307 310 311 316 326 326 329 338 341 341 342 343 345 345 348 350 350 352 353 356 360 360 357 357
314 315 313 312 314 314 313 313 313 313 312 328 330 331 334 338 338 339 340 341 343 344 344 344 343 342 344 347 350 353 352 353
309 314 314 310 314 315 313 314 314 312 324 329 328 330 334 337 338 339 339 340 341 342 342 341 341 342 341 343 345 345 345 346
312 313 302 315 321 319 316 315 317 319 321 326 329 333 338 340 339 339 339 339 340 340 340 339 338 339 343 343 344 344 343 343
306 308 313 314 316 315 314 314 319 320 326 329 332 334 335 340 341 339 338 338 338 337 337 340 341 342 342 341 342 343 343 342
311 305 304 314 317 322 320 310 322 324 326 328 330 320 329 338 338 338 337 338 336 336 336 337 339 338 340 339 341 340 342 343
311 308 311 318 320 323 308 317 326 325 328 328 326 335 339 339 338 338 338 338 338 338 336 337 339 338 336 335 335 339 341 343
312 309 306 324 322 315 326 331 330 329 330 330 335 337 337 338 337 338 336 333 333 333 334 335 336 336 336 336 341 343 343 342
316 316 326 326 326 332 332 329 333 334 335 335 333 334 334 335 333 331 330 332 333 332 333 334 337 339 337 340 342 341 340 340
315 319 322 324 328 330 331 331 334 334 333 333 330 329 328 329 329 329 330 330 331 331 331 333 337 338 340 340 340 339 337 337
316 320 322 324 325 328 330 330 329 328 328 327 326 326 326 327 328 329 330 331 332 332 332 333 336 336 337 338 338 335 334 333
311 320 322 323 326 328 327 326 326 326 325 326 326 325 326 326 328 329 330 332 331 332 332 333 334 334 336 337 337 335 331 330
318 321 322 323 323 327 325 325 325 326 326 324 325 326 326 326 328 326 330 331 332 332 333 334 334 333 335 336 334 332 329 329
Wind_Speed
12 13 15 15 6 19 15 10 10 6 2 13 13 12 10 9 7 7 8 7 8 8 8 8 6 6 6 6 5 5 7 6
11 11 14 18 15 7 6 2 10 7 17 7 12 10 10 8 7 8 8 9 9 8 7 7 7 6 4 4 5 0 4 3
10 13 9 11 13 10 8 12 8 4 5 10 9 9 8 7 4 7 8 9 9 8 7 7 5 5 3 4 4 5 5 3
9 6 14 13 8 16 10 5 16 14 10 9 10 8 9 8 5 7 8 9 8 8 7 6 5 4 2 2 4 4 5 5
16 15 11 9 3 13 16 8 12 7 7 7 9 9 6 8 9 8 8 8 8 7 6 6 6 2 1 3 3 4 5 7
2 15 12 7 6 6 10 11 13 9 12 14 10 10 7 5 9 10 6 7 7 9 8 8 7 5 3 1 2 4 4 5
18 14 25 7 5 5 7 8 11 16 13 5 11 6 8 9 8 9 10 9 9 9 8 8 7 7 7 6 5 3 2 4
21 12 6 10 9 10 11 10 10 11 11 12 7 10 8 9 10 9 9 9 9 9 8 7 7 7 6 6 5 5 5 6
13 3 11 10 11 12 3 8 11 9 12 5 8 10 10 10 10 10 9 8 8 8 8 6 6 5 5 4 3 3 3 3
3 6 1 16 6 7 11 11 7 5 2 1 6 9 8 8 9 9 9 8 6 6 7 6 4 5 2 3 1 2 3 4
7 12 14 11 6 6 7 9 10 4 9 6 7 8 8 9 9 8 8 6 6 6 5 1 3 3 3 4 2 4 6 4
12 15 17 10 7 7 8 9 10 8 9 10 8 9 7 11 9 8 7 2 3 5 6 10 10 6 7 7 8 5 7 7
12 14 13 5 4 5 9 4 6 6 9 9 6 9 8 8 6 5 3 1 3 5 6 5 5 5 6 7 7 6 8 9
12 10 13 7 2 7 7 1 0 2 3 4 9 6 4 6 6 5 2 3 2 5 5 5 4 4 7 7 4 6 8 9
9 7 4 5 5 8 6 3 1 2 4 3 4 6 4 2 3 3 3 4 6 5 6 6 4 3 8 6 6 8 10 11
7 4 3 3 2 2 2 1 2 5 4 2 3 3 1 1 3 6 7 7 7 8 8 8 5 4 7 8 8 10 12 13
9 10 4 8 5 3 3 2 3 4 3 2 2 3 4 5 6 6 6 8 7 7 8 9 9 9 10 11 11 12 14 14
7 9 4 5 2 3 5 5 3 2 4 2 3 5 6 6 7 7 6 6 9 9 11 12 12 13 12 12 12 13 14 13
8 8 6 8 8 4 7 5 4 0 1 4 5 6 6 7 7 5 8 9 9 10 12 13 13 14 13 12 13 15 15 15
Wind_Direction
213 214 237 259 254 278 296 252 228 115 236 122 122 115 117 106 110 107 100 90 99 114 123 131 156 156 157 161 185 217 254 290
179 231 246 272 319 222 275 92 280 32 294 85 131 142 128 130 121 117 117 109 103 103 109 133 135 139 143 159 182 99 61 22
163 212 207 200 237 235 182 254 261 154 167 231 102 127 138 113 150 126 118 108 106 104 112 118 104 110 121 198 188 174 153 132
201 99 210 307 88 256 274 65 338 301 101 73 98 103 129 134 119 88 97 103 103 107 110 115 115 128 158 303 275 218 171 171
221 195 194 244 239 316 313 286 217 303 115 122 122 117 132 136 131 131 132 124 112 99 102 106 108 103 186 236 274 272 201 224
133 323 317 303 252 279 304 298 321 310 120 151 127 132 144 132 152 137 125 112 92 105 88 87 89 93 89 59 302 267 256 254
149 180 248 299 274 266 278 305 302 318 330 21 82 138 169 150 133 150 149 127 123 109 105 100 86 74 63 53 46 33 317 294
273 186 226 250 259 278 272 268 280 289 272 73 102 120 149 157 158 145 135 129 124 125 118 103 100 93 80 72 62 52 48 45
242 96 336 254 250 281 342 308 300 273 74 116 127 146 169 157 163 146 140 140 141 134 132 127 119 122 115 100 92 81 61 37
109 213 298 258 21 304 292 292 251 276 346 226 134 149 147 165 159 153 148 150 158 154 149 169 141 111 146 151 201 270 304 328
339 281 254 316 291 198 273 267 210 234 112 137 138 145 161 173 154 155 150 154 182 174 152 4 313 204 275 261 265 284 270 277
259 297 292 311 351 64 338 270 216 169 146 157 168 229 141 162 159 159 162 122 215 224 220 214 204 234 202 241 249 254 275 297
249 258 264 75 62 91 247 39 51 156 167 176 209 59 118 147 165 163 123 239 232 237 276 300 349 307 289 287 296 351 324 306
254 253 269 15 145 256 52 9 98 243 149 193 116 106 135 153 162 169 182 292 246 318 329 333 287 299 287 292 345 307 292 291
328 24 64 6 345 30 343 93 294 61 103 210 190 129 124 116 86 24 344 318 317 322 307 288 268 332 310 320 307 297 297 294
284 308 6 2 12 324 262 14 140 130 116 191 144 133 237 24 5 349 332 332 319 308 304 317 318 279 286 291 295 295 294 292
264 268 224 247 258 176 157 176 144 94 85 47 21 327 6 341 332 318 331 316 316 319 302 304 303 301 304 306 306 299 295 295
256 43 338 321 252 190 232 205 180 180 142 146 2 335 340 322 320 315 316 337 309 307 305 314 317 309 304 304 298 295 296 291
304 331 318 275 280 205 232 212 166 218 315 328 335 332 337 312 315 358 279 280 299 317 313 303 296 294 297 301 306 296 288 291